155  
ASHW40 PHFO 212043  
RWRHI  
 
WEATHER ROUNDUP FOR HAWAII  
NATIONAL WEATHER SERVICE HONOLULU HI  
1000 AM HST TUE NOV 21 2017  
 
THIS IS AN AUTOMATED REPORT THAT HAS NOT BEEN QUALITY CONTROLLED.  
 
NOTE..."FAIR" INDICATES FEW OR NO CLOUDS BELOW 12,000 FEET WITH NO  
SIGNIFICANT WEATHER AND/OR S TO VISIBILITY
.  
 
* - THESE SITES REPORT LIMITED FIELDS  
# - BUOY DATA PROVIDED BY PACIFIC ISLANDS OCEAN OBSERVING SYSTEM.  
 
HIZ001>004-212100-  
KAUAI-NIIHAU-  
 
CITY SKY/WX TMP DP RH WIND PRES REMARKS
 
LIHUE APT SUNNY 75 58 55 N13 30.02R  
PORT ALLEN* N/A 77 N/A N/A S6 N/A  
POIPU* N/A 79 N/A N/A NE5G10 N/A  
PRINCEVILLE* N/A 75 N/A N/A N3 N/A  
KOKOLE POINT* NOT AVBL  
MOLOAA DAIRY* N/A N/A N/A N/A N2 N/A  
WAIMEA HTS* N/A 82 57 42 S7 N/A  
PUU OPAE* N/A 72 54 53 E5G12 N/A  
PUU LUA* NOT AVBL  
MAKAHA RIDGE* N/A N/A N/A N/A N3G9 N/A  

 
 
HIZ005>011-212100-  
OAHU-  
 
CITY SKY/WX TMP DP RH WIND PRES REMARKS
 
HONOLULU MOSUNNY 78 57 48 N9 29.99S  
KALAELOA SUNNY 77 60 55 VRB3 30.00F  
KANEOHE MCB CLOUDY 76 61 59 N5 29.97S  
WHEELER FIELD LGT RAIN 68 64 88 N13G22 30.03R  
BELLOWS* N/A N/A N/A N/A N7G13 N/A  
KAHUKU* N/A N/A N/A N/A S5G10 N/A  
WHEELER* N/A N/A N/A N/A N6G14 N/A  
WAIANAE HARBOR N/A N/A N/A N/A N9G23 N/A  
DILLINGHAM* NOT AVBL  
KAHUKU TRN* N/A 77 73 88 N1G13 N/A  
KAWAILOA* N/A 70 59 68 NE6G12 N/A  
KII* N/A 70 63 78 NE9G23 N/A  
MAKUA RANGE* N/A 73 64 73 W9 N/A  
OAHU FOREST NW N/A 66 57 72 NE12G22 N/A  
SCHOFIELD BRK* N/A 55 45 67 MISG N/A  
SCHOFIELD S* NOT AVBL  
WAIANAE VLY* N/A 63 55 77 SE3 N/A  
KUAOKALA* N/A 70 59 68 NE12G18 N/A  
HONOULIUULI* NOT AVBL  
MOKUOLOE IS* NOT AVBL  
PALEHUA* N/A 64 55 72 NW3G14 N/A  
WAIAWA PHB* NOT AVBL  

 
 
HIZ012>013-212100-  
MOLOKAI-  
 
CITY SKY/WX TMP DP RH WIND PRES REMARKS
 
MOLOKAI AIRPT SUNNY 76 61 59 N15 30.00R  
KALAUPAPA NOT AVBL  
MAKAPULAPAI* N/A 75 61 60 NE9 N/A  
MOLOKAI 1* N/A 64 61 88 N7G14 N/A  
PUU ALII* N/A 56 56 100 NE1 N/A  

 
 
HIZ016-212100-  
KAHOOLAWE-  
 
CITY SKY/WX TMP DP RH WIND PRES REMARKS
 
KAHOOLAWE* NOT AVBL  
HAKIOAWA* N/A 73 60 63 MISG 30.39S  
HONOKANAIA* NOT AVBL  
KANELOA* N/A 73 63 68 N15G25 30.02R  
KEALIALALO* NOT AVBL  
LUA MAKIKA* NOT AVBL  

 
 
HIZ014>015-212100-  
LANAI-  
 
CITY SKY/WX TMP DP RH WIND PRES REMARKS
 
LANAI CITY FAIR 72 59 63 NE13 30.02S  
LANAI 1* N/A N/A N/A N/A NE12G18 N/A  

 
 
HIZ017>028-212100-  
MAUI-  
 
CITY SKY/WX TMP DP RH WIND PRES REMARKS
 
KAHULUI MOSUNNY 77 61 57 NE8 29.98S  
KAPALUA-W MAUI MOSUNNY 75 59 57 NE12 29.99  
HANA AIRPORT NOT AVBL  
HANA* N/A 75 N/A N/A W9G15 N/A  
HALEAKALA SUMM N/A 45 -2 14 NW12 N/A  
MAALAEA BAY* N/A 79 N/A N/A N10G18 N/A  
HALEAKALA* NOT AVBL  
KAUPO GAP* NOT AVBL  
KULA 1* N/A 52 42 68 NW3 N/A  

 
 
HIZ023>026-212100-  
BIG ISLAND OF HAWAII COAST AND LOWER SLOPES-  
 
CITY SKY/WX TMP DP RH WIND PRES REMARKS
 
KAILUA KONA PTSUNNY 81 56 42 N15 29.94S  
HILO SUNNY 75 64 68 N9 29.97S  
HONOKAA* N/A 68 N/A N/A VRB1 N/A  
KAWAIHAE MWT* N/A 79 N/A N/A SW5 N/A  
KAWAIHAE* N/A 81 N/A N/A N7 29.94F  
SOUTH POINT* N/A 75 N/A N/A SE3G9 N/A  
UPOLU AIRPORT* NOT AVBL  
KAMUELA* CLOUDY 70 59 68 N8 30.05S  
HAKALAU* N/A 58 48 70 NE3G9 N/A  
KALOKO-HONOKO* N/A 84 55 37 W6 29.93F  
PALI 2* N/A 70 55 60 N6G13 N/A  
KEALAKOMO* N/A 82 55 39 N3G14 N/A  
KAUPULEHU* N/A 75 59 57 N8G15 N/A  
KAPAPALA* N/A 75 54 47 S3 N/A  
LOWER KAHUKU* N/A N/A N/A N/A S2 N/A  
PUHE CS* N/A 79 54 41 SW2 N/A  
PUHO CS* N/A 82 53 36 SW2 N/A  
PTA KEAMUKU* N/A 64 55 72 NE9 N/A  
WAIKOLOA* N/A 75 55 50 W5G13 N/A  

 
 
HIZ027>028-212100-  
BIG ISLAND OF HAWAII INTERIOR AND SUMMMITS-  
 
CITY SKY/WX TMP DP RH WIND PRES REMARKS
 
BRADSHAW FIELD SUNNY 61 37 40 W9 30.22R  
MK VISITOR CEN N/A 50 30 46 S8 N/A  
MAUNA KEA* N/A 34 -9 15 SW29 N/A WCI 20  
MAUNA LOA* N/A 43 0 16 MISG N/A  
MAUNA LOA 1* NOT AVBL  
PTA KIPUKA* N/A 66 52 59 S5G10 N/A  
PTA RANGE 17* N/A 59 45 58 SE8 N/A  
PTA WEST* N/A 63 48 59 N8 N/A  
NENE CABIN* N/A 55 39 54 SE3G12 N/A  
AHUMOA* N/A 56 50 81 NW6G12 N/A  
PTA PORTABLE* NOT AVBL  
PUU MALI* N/A 52 N/A N/A N6 N/A  

 
 
HIC003-212100-  
NORTHWEST ISLANDS-  
 
CITY SKY/WX TMP DP RH WIND PRES REMARKS
 
MIDWAY ISLAND CLOUDY 72 64 78 E26 30.21S  
MIDWAY NOS* N/A 73 N/A N/A MISG 30.20R  
FRENCH FRIGATE NOT AVBL  

 
 
PHZ110>124-180-212100-  
BUOY REPORTS  
 
STATION/POSITION TIME TEMP WIND PRES WAVE SWELL
 
AIR SEA DIR/SP/G HT/PER HT/DIR  
(UTC) (F) (DEG/KT/KT) (MB) (FT/S) (FT/D)  
BUOY 51001 2030 74 77 20/ 19/ 25 1017.9R  
BUOY 51101 1950 73 77 20/ 21/ 25 1017.8S 10/11 8/ 20  
BUOY 51100 NOT AVBL  
BUOY 51002 2030 78 81 40/ 6/ 10 1013.5R  
BUOY 51003 1950 77 80 40/ 16/ 17 1014.5R 8/11 7  
BUOY 51004 2030 78 80 30/ 8/ 12 1013.5F  
WAIMEA BAY# 2002 76 N/A 11/12 7/ 20  
MOKAPU POINT# 2004 78 N/A 11/13 8/ 20  
LANAI# NOT AVBL  
BARBERS PT 2# NOT AVBL  
PAUWELA# NOT AVBL  
HILO# 2027 79 N/A 11/12 8/350  
KANEOHE BAY# NOT AVBL  
KANEOHE BAY 2# NOT AVBL  
HANALEI# 2022 79 N/A 12/11 8/ 10  
KAHULUI HARBOR 2006 75 78 360/ 9/ 11 1015.2  
HONOLULU HARBOR 2006 75 79 90/ 3/ 7 1016.2  
PEARL HARBOR# 2000 79 N/A 2/ 8 2/170  
KILO NALU NOT AVBL  
HILO HARBOR 2006 73 78 10/ 16/ 18 1014.4  
MOKUOLOE 1936 73 75 10/ 5/ 8 1016.0R  
NAWILIWILI 2018 76 20/ 8/ 12 1016.0  
WHOTS BUOY NOT AVBL  
BUOY 51028 NOT AVBL  

 
   
.....................KEY.....................................
 
 
SKY/WX - SKY CONDITIONS/PRESENT WEATHER  
TMP - TEMPERATURE IN FAHRENHEIT  
DWPT - DEWPOINT IN FAHRENHEIT  
RH - RELATIVE HUMIDITY IN PERCENT  
WIND - DIRECTION AND SPEED /MPH FOR ISLANDS...KTS FOR BUOYS/  
PRES - MEAN SEA LEVEL PRESSURE IN INCHES OF HG  
VSB - VISIBILITY IN MILES  
HX - HEAT INDEX  
WCI - WIND CHILL INDEX  
VRB - VARIABLE WIND DIRECTION  
N/A - NOT AVAILABLE  
 
 
CLICK HERE TO GO TO PREVIOUS BULLETINS.

The Nexlab HI Page Main Text Page